Location: Ashtead
(51.3000°N, 0.3000°W)
Time: 19:13:28
(UTC+00:00)

ARIANE 5 R/B - Pass Details

Date: 26 September 2023
Orbit: 748 x 793 km, 98.8° (Epoch: 08 December)

Event Time Altitude Azimuth Distance (km) Brightness Sun altitude
Rises 04:22:19 0° 19° (NNE) 3,252 6.3 -14.8°
Reaches altitude 10° 04:24:43 10° 24° (NNE) 2,313 5.6 -14.5°
Maximum altitude 04:29:39 50° 100° (E) 971 3.5 -13.7°
Drops below altitude 10° 04:34:30 10° 175° (S) 2,273 4.8 -13.0°
Sets 04:36:51 0° 181° (S) 3,188 5.5 -12.6°
